Regional Weather Roundup
Issued by NWS Charleston, SC

Home | Current Version | Previous Version | Text Only | Print | Product List | Glossary On
Versions: 1 2 3 4 5 6 7 8 9 10 11 12 13 14 15 16 17 18 19 20 21 22 23 24 25 26 27 28 29 30 31 32 33 34 35 36 37 38 39 40 41 42 43 44 45 46 47 48 49 50
000
ASUS42 KCHS 271928
RWRCHS

REGIONAL WEATHER ROUNDUP
NATIONAL WEATHER SERVICE CHARLESTON SC
300 PM EDT WED JUL 27 2016

NOTE: "FAIR" INDICATES FEW OR NO CLOUDS BELOW 12,000 FEET WITH NO
SIGNIFICANT WEATHER AND/OR OBSTRUCTIONS TO VISIBILITY.

NOT ALL STATIONS ARE QUALITY CONTROLLED. USE DATA WITH CAUTION...
ESPECIALLY DEWPOINT OBSERVATIONS.

SCZ027-030-031-034>040-042>050-272000-
...SOUTHEAST SOUTH CAROLINA...

CITY           SKY/WX    TMP DP  RH WIND       PRES   REMARKS
N CHARLESTON   MOSUNNY   96  73  47 W7        30.00F HX 105
WATERFRONT PRK   N/A     92  75  57 SW7       30.00F HX 103
MOUNT PLEASANT FAIR      91  79  66 S14       30.00F HX 107
JOHNS ISLAND   FAIR      93  79  62 S15       30.00F HX 110
PINOPOLIS        N/A     91  73  55 SW5       29.92F HX 100
MONCKS CORNER  FAIR      91  68  46 SW6       29.99F HX  95
SUMMERVILLE    FAIR      97  73  46 W9        30.00F HX 107
BEAUFORT MCAS  PTSUNNY   95  71  45 SW9G17    30.02F HX 102
BEAUFORT ARPT  FAIR      95  73  49 SW7G17    30.01F HX 105
HILTON HEAD IS MOSUNNY  100  72  39 SW9G17    30.04F HX 109
WALTERBORO     PTCLDY    95  72  46 SW8       30.01F HX 103
ALLENDALE      FAIR      93  73  52 VRB6      30.00F HX 102

...SOUTHERN MIDLANDS AND PEE DEE...

CITY           SKY/WX    TMP DP  RH WIND       PRES   REMARKS
GEORGETOWN     FAIR      93  73  52 SW8       29.99F HX 102
KINGSTREE      FAIR      95  72  46 SW6       29.97F HX 103
ORANGEBURG     MOSUNNY   95  73  48 W10G18    30.00F HX 104
BARNWELL       NOT AVBL
AIKEN          FAIR      91  70  49 SW12      30.04F HX  97
MANNING        FAIR      93  73  52 SW10      29.98F HX 102
COLUMBIA       PTSUNNY   99  70  38 CALM      29.96F HX 106
SUMTER         MOSUNNY   96  72  46 SW13      29.96F HX 105
FLORENCE       MOSUNNY   95  73  48 SW10      29.97F HX 104
MYRTLE BEACH   MOSUNNY   91  73  55 S17       30.00F HX 100
N MYRTLE BEACH SUNNY     90  78  68 S15       29.98F HX 104

$$

GAZ063-065-086>088-099>101-113>116-118-119-134>141-150-272000-
...SOUTHEAST GEORGIA...

CITY           SKY/WX    TMP DP  RH WIND       PRES   REMARKS
SAVANNAH ARPT  MOSUNNY   96  70  42 W10       30.03F HX 102
HUNTER AAF     SUNNY     95  76  53 W15       30.01F HX 108
FORT STEWART   MOSUNNY   94  71  46 SW6       30.01F HX 101
STATESBORO     MOSUNNY   95  74  51 W10       30.03F HX 105
SYLVANIA       NOT AVBL
CLAXTON        FAIR      95  73  48 SW9       30.02F HX 104

...CSRA...CENTRAL AND FAR SOUTHEAST GEORGIA...

CITY           SKY/WX    TMP DP  RH WIND       PRES   REMARKS
THOMSON        NOT AVBL
AUGUSTA-BUSH   MOSUNNY   97  70  41 SW12G21   29.99F HX 103
AUGUSTA-DANIEL PTSUNNY   95  71  45 SW7       30.01F HX 102
SWAINSBORO     MOCLDY    93  70  46 SW9       30.04F HX  99
VIDALIA        PTSUNNY   95  68  41 W6        30.04S HX  99
EASTMAN        FAIR      94  53  25 SW7       30.07F HX  92
HAZLEHURST     MOCLDY    94  72  49 CALM      30.04F HX 102
ALMA           MOSUNNY   93  70  46 SW8       30.04F HX  99
WAYCROSS       MOSUNNY   98  73  44 W10       30.04F HX 108
JESUP          MOCLDY    97  75  49 NW9       30.03F HX 109
BAXLEY         FAIR      95  75  52 W7        30.04F HX 107
BRUNSWICK      MOSUNNY   97  72  44 SW5G20    30.04F HX 105
SAINT SIMONS   MOSUNNY   91  75  59 SE10      30.05F HX 101

$$

SCZ027-028-034-036>038-045-046-048>050-GAZ119-141-272000-
...LAKE AND SUPPLEMENTAL COASTAL OBSERVATIONS...

STATION/POSITION TIME  TEMP    WIND        PRES    WAVE   SWELL
                       AIR SEA DIR/SP/G            HT/PER HT/PER/DIR
                 (UTC) (F)     (DEG/KT/KT) (MB)    (FT/S) (FT/S/D)
WINYAH BAY       1800   93     220/  6     1015.0
LAKE MURRAY      1800   94     180/  2/  4 1014.9F
ACE BASIN NERRS  1800   92     230/  3     1017.0F
FORT PULASKI     1900   91 87  270/  9/ 12 1017.2F
SAPELO ISLAND    1900   93     250/  8     1017.0F

$$

ANZ835-935-AMZ111-154-330-350-352-354-370-450-454-472-272000-
...C-MAN AND BUOY OBSERVATIONS...

STATION/POSITION TIME  TEMP    WIND        PRES    WAVE   SWELL
                       AIR SEA DIR/SP/G            HT/PER HT/PER/DIR
                 (UTC) (F)     (DEG/KT/KT) (MB)    (FT/S) (FT/S/D)
BUOY 41004       1850   85 86  230/ 12/ 16 1016.3F   3/ 5   2/140/ 8
BUOY 41008       1850   86 87  170/ 10/ 12 1017.4F   1/ 5
FOLLY BEACH CMAN 1900   87     200/ 16/ 18 1016.6F
CAPERS NEARSHORE 1808   85 85  220/ 14/ 17 1016.5F
FRIPP NEARSHORE  1908   87 87  200/ 14/ 17 1016.0F


STATION/POSITION TIME  TEMP    WIND        PRES    WAVE   SWELL
                       AIR SEA DIR/SP/G            HT/PER HT/PER/DIR
                 (UTC) (F)     (DEG/KT/KT) (MB)    (FT/S) (FT/S/D)
5E ST. MARYS GA  1901      87                N/A     1/ 8
FRYING PAN BUOY  1900   85 85  220/ 14/ 16 1015.4F
BUOY 41025       1850   84 85  250/ 10/ 12 1014.1F   3/ 5   2/220/ 5
CAPE LOOKOUT NC  1900   88     220/  9/ 11 1014.0F
BUOY 41002       1850   85 85  280/ 10/ 12 1017.3F   4/ 6   3/280/ 6
BUOY 41010       1820   85 88  240/  4/  6 1019.0F
ST AUGUSTINE FL  1900   84 86  100/ 11/ 11 1019.0F


$$



USA.gov is the U.S. government's official web portal to all federal, state and local government web resources and services.